Regional Weather Roundup
Issued by NWS Newport/Morehead, NC

Current Version | Previous Version | Graphics & Text | Print | Product List | Glossary Off
Versions: 1 2 3 4 5 6 7 8 9 10 11 12 13 14 15 16 17 18 19 20 21 22 23 24 25 26 27 28 29 30 31 32 33 34 35 36 37 38 39 40 41 42 43 44 45 46 47 48 49 50

000
ASUS42 KMHX 260524
RWRMHX
WEATHER ROUNDUP FOR EASTERN NORTH CAROLINA
NATIONAL WEATHER SERVICE NEWPORT/MOREHEAD CITY NC
100 AM EDT SUN APR 26 2015

NOTE: "FAIR" INDICATES FEW OR NO CLOUDS BELOW 12,000 FEET
WITH NO SIGNIFICANT WEATHER AND/OR OBSTRUCTIONS TO VISIBILITY

NCZ015>017-031-032-045>047-102-103-260600-
NORTH COAST

CITY           SKY/WX    TMP DP  RH WIND       PRES   REMARKS
EDENTON        DRIZZLE   50  49  97 N8        29.64R
ELIZABETH CITY LGT RAIN  50  49  96 N17       29.64S FOG
KITTY HAWK     CLOUDY    53  53 100 N8        29.60R FOG
MANTEO         CLOUDY    54  54  99 N12       29.60S

$$

NCZ045>047-081-094-103-104-260600-
CENTRAL COAST

CITY           SKY/WX    TMP DP  RH WIND       PRES   REMARKS
FRISCO         CLOUDY    57  57 100 VRB6      29.56S
SWANQUARTER      N/A     54 N/A N/A N6G12     29.56S

$$

NCZ095-097-098-100-101-260600-
SOUTHERN COAST

CITY           SKY/WX    TMP DP  RH WIND       PRES   REMARKS
BEAUFORT       CLOUDY    63  63 100 W13       29.59R
CEDAR ISLAND     N/A     61 N/A N/A NW15      29.62S
JACKSONVILLE   CLOUDY    62  60  93 NW10      29.60S
PINEY ISLAND   CLOUDY   N/A N/A N/A N13       29.58S
WILMINGTON     CLOUDY    67  66  97 W5        29.60F


$$

NCZ011>013-027>030-043-044-078>080-089-090>093-098-260600-
COASTAL PLAIN

CITY           SKY/WX    TMP DP  RH WIND       PRES   REMARKS
AHOSKIE        DRIZZLE   46  45  97 NE6       29.65F
CLINTON        CLOUDY    59  59 100 N5        29.62S FOG
ELIZABETHTOWN  CLOUDY    63  63 100 CALM      29.60F FOG
GOLDSBORO      CLOUDY    55  55 100 N7        29.61  FOG
GREENVILLE     CLOUDY    54  54 100 N5        29.66S FOG
HAVELOCK       CLOUDY    62  59  90 W7        29.60S
KENANSVILLE    CLOUDY    59  58  96 N3        29.62F FOG
KINSTON        CLOUDY    57  56  99 N6        29.62S FOG
NEW BERN       CLOUDY    60  58  92 N5        29.61S
RICHLANDS      CLOUDY    59  55  88 CALM      29.60F
ROCKY MOUNT    CLOUDY    50  48  93 N9        29.65S FOG
WASHINGTON       N/A     52  51  97 N5        29.62S FOG
WHITEVILLE     CLOUDY    66  65  94 CALM      29.59F

$$

AMZ130-135-150-152-154-156-158-170-250-252-270-ANZ085-086-088-633-658-670-260600-
MARINE OBSERVATIONS

STATION/POSITION TIME  TEMP    WIND        PRES    WAVE   SWELL
                       AIR SEA DIR/SP/G            HT/PER HT/PER
                 (UTC) (F)     (DEG/KT/KT) (MB)    (FT/S) (FT/S)
CHESAPEAKE LIGHT 0500   46      60/ 15/ 16 1004.7
64 E VA BEACH    0450   54 58   30/ 19/ 21 1002.4    3/ 4   2/11
DUCK             0500   51 54   20/ 21/ 25 1001.5
2 E DUCK         0411      54                N/A     4/ 5
10 NE DUCK       NOT AVBL
OREGON INLET     0500   54 59  360/  5/ 10 1001.6
HATTERAS CG      0412   60 65   20/  7/ 11 1000.5
DIAMOND BUOY     0450   66 76  330/ 10/ 14 1000.1    5/ 7   5/ 7
CAPE LOOKOUT     0500   64     290/ 13/ 15 1001.3
BEAUFORT LAB     0412   63 63  340/  5/  6 1000.7
27 SE WRIGHTSVLE 0500   67 72  280/ 17/ 21   N/A
5 SE WRIGHTSVLE  0408   67 65  250/  8/ 12 1002.5
225 S CAPE HAT   0450   73 71  230/ 23/ 27 1004.3    7/ 6   2/11
41 SE CHARLESTON 0450   71 71  210/ 17/ 21 1002.8    5/ 6   2/ 9

$$



USA.gov is the U.S. government's official web portal to all federal, state and local government web resources and services.